Find Starlink 31164

NORAD ID: 58733 Int'l Des: 2024-005 Owner: SPXS Country: US Constellation: starlink operational
LEOCIRCULAR

Current View

Loading 3D Globe...

About Starlink 31164

Starlink 31164 (NORAD 58733) is a starlink constellation satellite (v2 mini) launched Jan 7, 2024 by SPXS of US. It operates in LEO, CIRCULAR orbit with a mass of 730.00 kg.

About Starlink 31164

Description loading...

Upcoming Passes

Passes for default location (London). Set your location on the main map for personalized predictions.

Altitude History

Loading altitude history...

Two-Line Element Set

1 58733U 24005F 26166.87333805 -.00000143 00000-0 43407-5 0 9997
2 58733 43.0022 24.9179 0001580 253.2964 106.7714 15.27573211135454
Epoch: Jun 15, 2026 • Age: 23 hours

Current Status

Altitude 485.3 km
Velocity 7.63 km/s
Sub-Earth Point 34.79°N, 45.28°W
Launch Date Jan 7, 2024
Age 2.4 years
Type internet

Technical Details

Classification Payload
Mass 730.00 kg
Dry Mass 700.00 kg
Total Mass 730.00 kg
Length 0.30 m
Diameter 4.10 m
Span 29.00 m
Shape Box + pan
Manufacturer SPXS
Bus Type Starlink V2M
Phase Status In Orbit
Owner/State SPXS/US

Most Searched